TIME,DELAY(SENSOR),PRES,OXYGEN,RAWTEMP,T(OPTODE),TCPHASE,FLUOR,BETA(BETA700),BETA(BETA412),BETA(BETA440),CDOM,C(CSC),ED(ED411.90),ED(ED443.80),ED(ED489.40),ED(ED554.70),LU(LU412.20),LU(LU443.80),LU(LU489.40),LU(LU555.00),COMP,TILTX,TILTY,CHECK
1348004469,5804,903.5700073242188000,170.9129028320312500,441.1830139160156000,9.7105197906494140,39.3983993530273440,51,105,97,82,74,14960,2147450505,2147788004,2147575286,2147819035,2147305929,2147456301,2147753508,2148270765,2554,6,14,57266
1348008065,5803,11.8000001907348630,196.8500976562500000,507.7684936523437500,7.6367511749267580,38.7966499328613300,50,106,97,81,74,14950,2147441161,2147798994,2147582829,2147828397,2147306212,2147453101,2147766555,2148278134,1386,6,14,6830
1348011665,5804,13.0000000000000000,207.5924987792968800,518.7598876953125000,7.2916851043701170,38.3361091613769500,51,105,99,82,76,14945,2147434852,2147797458,2147584768,2147829824,2147305846,2147451392,2147761874,2148280932,112,6,14,35638
1348015265,5804,10.0000000000000000,209.2794952392578000,520.7539062500000000,7.2289929389953610,38.2718582153320300,50,104,97,82,74,14949,2147433252,2147800502,2147586395,2147829668,2147303332,2147449910,2147765915,2148277430,2753,6,15,29535
1348018865,5805,14.6999998092651370,213.2366027832031200,524.2316284179688000,7.1195850372314450,38.1029396057128900,51,108,98,83,74,14945,2147438089,2147797156,2147584576,2147831652,2147305426,2147451510,2147765046,2148279881,194,6,14,15988
1348022465,5803,10.1999998092651370,210.5426940917968800,521.7369995117188000,7.1980738639831540,38.2153205871582000,51,107,97,83,74,14945,2147431314,2147801938,2147584118,2147829513,2147304301,2147451328,2147764425,2148279030,3537,6,14,40606
1348026065,5804,14.6000003814697270,210.2814941406250000,522.3084106445312000,7.1800990104675290,38.2406806945800800,51,106,98,82,74,14942,2147431131,2147800384,2147584027,2147832091,2147301696,2147447360,2147765513,2148280292,319,6,14,16073
1348029665,5805,1437.0000000000000000,210.0590057373047000,521.8217163085938000,7.1954121589660645,38.2452888488769500,51,106,97,82,73,14940,2147435510,2147798957,2147586304,2147832630,2147304612,2147447954,2147765577,2148281316,3372,6,14,2505
1348033265,5803,10.6000003814697270,204.0352935791015600,513.3477172851562000,7.4617018699646000,38.4538612365722660,50,106,98,82,75,14943,2147436297,2147799414,2147584192,2147827986,2147307940,2147447478,2147764251,2148276425,3065,6,14,50089
1348036865,5808,12.3000001907348630,203.2671966552734400,512.7719116210938000,7.4797778129577640,38.4897804260253900,51,105,98,82,74,14946,2147434569,2147795995,2147582976,2147830500,2147307675,2147447213,2147762230,2148276342,34,6,14,38279
1348040465,5804,12.8999996185302730,203.0579986572265600,513.8942871093750000,7.4445419311523440,38.5225105285644500,51,104,96,82,75,14952,2147440841,2147798592,2147584969,2147829467,2147303286,2147454134,2147765668,2148277001,3498,6,14,30834
1348044065,5805,10.6999998092651370,203.6208953857422000,513.8565063476562000,7.4457278251647950,38.4875984191894500,51,103,97,81,74,14949,2147435108,2147798336,2147581440,2147829147,2147303597,2147456374,2147762752,2148279131,3520,6,14,64493
1348047665,5805,1002.0000000000000000,203.8954010009765600,514.8157958984375000,7.4156050682067870,38.4878501892089840,51,105,97,82,75,14954,2147434121,2147795318,2147582473,2147831588,2147305517,2147449316,2147760758,2148279021,110,6,14,12438
1348051265,5803,1261.0000000000000000,203.8329925537109400,514.5208129882812000,7.4248690605163570,38.4860610961914060,51,106,98,82,74,14950,2147431360,2147799524,2147582208,2147829979,2147305106,2147450834,2147762029,2148278372,3562,6,14,37407
1348054865,5804,12.5000000000000000,204.8874969482422000,515.8474121093750000,7.3832039833068850,38.4459190368652340,51,107,98,82,74,14950,2147431616,2147796096,2147584502,2147829293,2147304438,2147448045,2147758390,2148279725,3335,6,14,20358
1348058465,5806,1245.0000000000000000,206.0299072265625000,516.8493041992188000,7.3517279624938965,38.3954010009765600,51,105,97,84,74,14947,2147438180,2147794852,2147585316,2147827401,2147303277,2147446921,2147763593,2148278400,42,6,14,20589
1348062065,5805,13.8999996185302730,205.1748962402343800,515.6339111328125000,7.3899102210998535,38.4252510070800800,50,105,98,82,75,14953,2147432530,2147797357,2147585462,2147832630,2147303149,2147450075,2147760320,2148278025,279,6,14,2471
1348065665,5806,12.3999996185302730,204.2671051025390600,515.6395874023438000,7.3897290229797360,38.4806785583496100,51,107,98,81,74,14956,2147432448,2147796726,2147583360,2147828726,2147305508,2147453632,2147764745,2148278948,183,6,14,19424
1348069265,5804,10.8999996185302730,203.8984069824218800,514.3485717773438000,7.4302749633789060,38.4791107177734400,51,105,97,82,75,14960,2147432292,2147798637,2147585691,2147828525,2147303963,2147449389,2147759670,2148278637,535,6,14,7884
1348072865,5805,10.6999998092651370,202.0204925537109400,513.5537109375000000,7.4552350044250490,38.5788917541503900,52,104,97,82,75,14957,2147436891,2147794148,2147585133,2147829513,2147308534,2147452123,2147764150,2148279945,35,6,14,61104
1348076465,5805,13.8000001907348630,200.9649963378906200,514.2399291992188000,7.4336900711059570,38.6562881469726560,51,106,97,82,75,14959,2147437613,2147798098,2147585234,2147832777,2147304841,2147448676,2147762477,2148276827,3383,6,14,2748
1348080065,5802,11.0000000000000000,199.1419982910156200,507.1430053710937500,7.6563620567321780,38.6429901123046900,51,104,97,82,75,14961,2147434614,2147796781,2147583451,2147826880,2147304749,2147450633,2147761435,2148278299,3192,6,14,51779
1348083665,5801,10.3999996185302730,195.8070983886718800,506.2331848144531000,7.6848840713500980,38.8355789184570300,52,105,97,84,74,14962,2147436022,2147794514,2147582756,2147829275,2147305005,2147450825,2147760877,2148276242,3486,6,14,16667
1348087265,5804,1133.0000000000000000,196.3560028076172000,506.9511108398437500,7.6623768806457520,38.8138694763183600,51,103,98,83,74,14960,2147436489,2147796068,2147581933,2147828589,2147304402,2147450541,2147757906,2148277129,153,6,14,51287
1348090865,5805,11.6000003814697270,196.2308959960937500,506.7457885742187500,7.6688151359558105,38.8178405761718750,51,104,98,83,74,14960,2147437513,2147795675,2147582299,2147826944,2147306121,2147450633,2147757915,2148276342,323,6,14,26861
1348094465,5806,10.3999996185302730,198.2149963378906200,507.2987976074219000,7.6514778137207030,38.7040290832519500,50,106,98,81,75,14962,2147437613,2147793810,2147583003,2147831488,2147307245,2147450112,2147761325,2148276946,3492,6,14,20094
1348098065,5808,11.3000001907348630,198.9329986572265600,507.5922851562500000,7.6422739028930660,38.6641998291015600,51,105,95,82,75,14947,2147436150,2147794331,2147582601,2147827913,2147304146,2147450742,2147762944,2148280987,48,6,13,16592
1348101665,5805,10.3999996185302730,199.3323059082031200,509.1108093261719000,7.5946550369262695,38.6659202575683600,51,105,98,81,74,14950,2147436955,2147794240,2147583872,2147827748,2147307017,2147450176,2147762614,2148276361,726,6,14,47025
1348105265,5801,10.3000001907348630,198.6369018554687500,508.7020874023437500,7.6074728965759280,38.7021293640136700,51,104,97,82,75,14950,2147436891,2147795337,2147578386,2147827172,2147304969,2147449280,2147760045,2148280676,3204,6,15,48128
1348108865,5804,11.8999996185302730,198.3477020263672000,507.3028869628906000,7.6513490676879880,38.6952095031738300,51,106,97,82,74,14934,2147438198,2147795584,2147584932,2147830372,2147306130,2147447524,2147761088,2148279350,328,6,14,59722
1348112465,5805,12.8999996185302730,197.9696044921875000,506.3900146484375000,7.6799688339233400,38.7032203674316400,51,104,97,82,73,14936,2147436315,2147794048,2147583981,2147831268,2147308022,2147452534,2147756800,2148277641,3099,6,14,64866
1348116065,5807,11.6000003814697270,196.4452056884765600,505.3875122070312500,7.7113890647888180,38.7809715270996100,51,105,97,82,75,14936,2147438774,2147792219,2147585152,2147825892,2147305984,2147449334,2147759771,2148278409,28,6,14,38931
1348119665,5803,11.0000000000000000,196.8199005126953000,506.2756958007812500,7.6835532188415530,38.7731704711914060,51,103,97,81,74,14934,2147434249,2147795730,2147586523,2147828672,2147307483,2147456932,2147761810,2148274852,3538,6,14,65263
1348123265,5806,11.1000003814697270,196.4559936523437500,505.6921997070312500,7.7018399238586430,38.7850303649902340,52,103,100,81,74,14935,2147436662,2147791954,2147582052,2147830985,2147307593,2147449426,2147762678,2148277833,57,6,13,56600
1348126865,5804,10.0000000000000000,195.0084991455078000,505.7338867187500000,7.7005338668823240,38.8774299621582000,51,103,97,81,74,14934,2147437595,2147798610,2147582966,2147828845,2147307072,2147446939,2147760347,2148277942,3489,6,14,45578
1348130465,5803,1176.0000000000000000,194.9992980957031200,506.6755065917969000,7.6710190773010250,38.8936195373535160,50,105,96,81,74,14935,2147436580,2147795520,2147584118,2147829357,2147305462,2147450276,2147765494,2148278436,3428,6,14,27982
1348134065,5805,1174.0000000000000000,196.8267059326172000,508.1116943359375000,7.6259889602661130,38.8051605224609400,50,103,96,81,74,14937,2147435382,2147795648,2147583396,2147828361,2147306980,2147448420,2147761700,2148279542,286,6,14,12560
1348137665,5804,10.3000001907348630,197.0932006835937500,508.8569946289062500,7.6026158332824710,38.8007087707519500,50,105,97,82,74,14927,2147434240,2147798326,2147584128,2147826596,2147305353,2147449965,2147759707,2148278400,660,6,14,20972
1348141265,5806,1043.0000000000000000,197.7436981201172000,509.5380859375000000,7.5812549591064450,38.7725410461425800,51,106,97,82,74,14937,2147436242,2147794889,2147584082,2147826395,2147305225,2147454939,2147763373,2148277193,897,6,14,46843
1348144865,5803,1118.0000000000000000,199.4367065429687500,509.9692077636719000,7.5677289962768555,38.6749191284179700,52,104,96,82,74,14936,2147434651,2147796406,2147579995,2147829129,2147304813,2147448960,2147761837,2148277558,3448,6,14,5611
1348147856,5803,11.3000001907348630,199.8460998535156200,510.6036071777344000,7.5478267669677730,38.6610183715820300,50,104,97,81,74,14941,2147435227,2147797110,2147581860,2147826304,2147305243,2147447588,2147760740,2148278317,3543,6,14,61419
